RH
22 23 18 18 28 33 39 39 35 42 42 42 40 37 40 44 49 66 52 65 46 48 43 41 40 42 43 40 38 37 35 36 36 36 34 36 36 41 43 46 46 42 40 40
27 20 18 22 26 30 35 34 32 36 38 40 38 38 35 41 47 60 52 69 47 50 46 40 38 38 38 37 36 33 33 35 36 35 36 36 39 40 41 41 40 39 36 35
22 18 23 23 25 24 31 32 30 33 37 45 42 37 38 40 44 51 59 48 49 48 45 41 34 34 35 35 33 31 30 32 32 32 34 36 38 39 39 37 36 36 32 35
24 25 22 23 23 20 28 26 32 36 33 37 33 38 35 30 39 44 47 50 52 47 49 52 46 37 32 32 31 29 29 29 29 29 30 29 29 31 33 35 33 33 30 30
24 22 20 23 20 18 18 21 29 37 33 35 33 34 30 31 36 43 46 39 63 49 45 45 44 33 32 31 29 27 28 27 27 26 28 27 30 28 29 32 32 32 32 35
29 24 19 16 17 14 14 22 26 25 31 31 30 34 33 29 31 32 42 51 44 52 50 46 44 40 35 33 32 29 27 26 25 24 25 29 27 26 27 30 32 32 35 38
33 30 20 15 16 14 15 16 21 22 22 23 23 30 30 29 30 33 37 42 50 52 52 48 39 38 35 30 30 28 26 25 24 25 24 24 25 25 25 27 29 32 36 34
26 27 24 16 15 14 13 13 14 20 20 21 20 22 19 26 27 29 33 38 42 46 54 46 42 39 35 31 27 26 24 22 21 21 19 19 20 22 20 22 27 27 30 34
27 24 26 21 17 17 15 13 12 15 17 18 18 18 17 22 26 28 27 33 37 42 48 42 40 36 35 28 23 20 20 18 17 16 17 16 16 16 15 18 20 24 25 30
26 30 24 23 22 18 16 16 14 15 19 19 16 17 16 16 23 25 28 30 33 38 44 43 42 33 25 24 23 21 17 14 13 15 13 13 12 14 14 15 19 21 25 24
31 32 28 27 24 20 17 19 17 14 13 18 19 15 13 16 16 22 24 27 32 39 41 43 43 31 27 30 30 25 21 19 15 14 13 14 17 18 18 19 20 23 24 28
39 30 31 32 26 24 21 17 18 18 18 15 17 15 15 15 17 18 22 24 27 36 40 40 45 33 32 31 31 30 32 31 28 25 23 21 19 19 19 19 19 20 24 27
53 38 32 37 36 28 22 20 18 22 17 18 18 16 18 16 17 20 18 24 28 32 36 40 43 35 31 31 33 34 37 37 38 38 36 33 30 28 25 23 21 20 19 20
55 43 41 36 32 30 27 24 21 19 20 18 19 19 20 18 18 20 17 20 27 30 32 38 40 39 30 33 33 34 37 39 42 46 45 43 39 35 33 32 28 24 22 19
56 50 45 39 36 34 27 24 22 19 21 20 20 19 24 20 18 20 19 23 28 33 36 42 42 43 39 37 33 32 34 38 43 46 46 45 47 43 40 37 36 33 26 23
57 50 51 48 41 43 39 28 24 24 20 24 20 20 23 25 19 19 21 25 27 31 36 37 38 41 48 40 36 36 35 39 42 42 43 46 48 49 46 41 40 39 36 31
61 61 59 50 49 45 44 36 29 26 25 23 22 22 24 26 25 21 19 22 26 27 29 31 33 35 38 37 39 41 38 38 39 39 40 40 41 44 46 47 43 42 39 38
64 59 58 54 56 60 45 41 34 31 26 25 24 22 26 29 29 27 24 19 22 25 27 27 25 26 29 31 34 36 38 38 35 36 35 36 36 34 39 42 44 44 44 41
57 58 59 57 58 53 49 42 38 36 34 27 25 24 26 32 36 35 29 25 22 20 20 21 22 22 24 27 34 36 33 30 30 30 32 33 34 35 32 35 38 46 47 46
57 58 58 57 56 54 49 44 42 39 37 38 33 32 31 32 36 44 35 32 29 27 26 25 23 20 21 22 25 28 29 30 29 30 30 32 34 35 35 33 34 38 43 45
50 60 58 57 55 52 54 50 46 46 61 50 45 40 38 39 45 43 38 35 32 27 25 22 19 17 17 18 20 24 25 23 25 26 30 31 32 33 32 34 33 34 36 40
54 56 61 57 55 62 60 54 57 67 66 54 53 50 48 46 45 42 41 36 33 29 26 25 23 19 16 14 15 16 18 18 16 16 18 23 27 29 29 30 32 35 36 37
56 64 61 58 53 54 58 58 63 59 63 64 53 48 47 46 44 41 40 36 33 32 27 30 30 23 18 17 17 15 12 12 12 14 16 14 15 16 18 23 28 33 37 41
67 63 64 59 55 52 57 56 55 57 53 58 56 48 44 44 41 38 35 35 32 30 29 33 36 36 31 28 24 20 15 14 14 15 16 16 17 18 21 24 30 35 39 41
58 60 62 64 59 57 52 53 52 50 49 48 51 50 47 45 44 40 38 35 33 33 36 44 46 42 44 38 30 26 24 19 18 19 20 20 21 24 25 28 35 38 38 44
57 54 57 58 57 59 54 52 53 50 45 44 44 46 50 47 42 37 35 37 38 37 35 45 53 44 40 37 32 29 26 25 24 24 24 24 28 31 32 36 35 40 42 42